| time (UTC) | temp F | wind direction | speed MPH | gust MPH | rain 1hr in | rain 24hr in | rain mn in | humidity % | barometer mb |
| 20260505062038 | 75 | 214 | 1.0 | 7.0 | 0.00 | 0.00 | 0.00 | 68 | 1003.3 |
| 20260505061045 | 75 | 181 | 2.0 | 8.0 | 0.00 | 0.00 | 0.00 | 68 | 1003.4 |
| 20260505055044 | 74 | 161 | 1.0 | 5.0 | 0.00 | 0.00 | 0.00 | 69 | 1003.4 |
| 20260505054013 | 75 | 167 | 1.0 | 7.0 | 0.00 | 0.00 | 0.00 | 69 | 1003.4 |
| 20260505051905 | 75 | 148 | 2.0 | 9.0 | 0.00 | 0.00 | 0.00 | 68 | 1003.4 |
| 20260505050850 | 75 | 96 | 3.0 | 8.0 | 0.00 | 0.00 | 0.00 | 68 | 1003.5 |
| 20260505041503 | 75 | 145 | 2.0 | 8.0 | 0.00 | 0.00 | 0.00 | 67 | 1003.6 |
| 20260505040500 | 75 | 196 | 2.0 | 9.0 | 0.00 | 0.00 | 0.00 | 67 | 1003.8 |
| 20260505035502 | 75 | 139 | 3.0 | 9.0 | 0.00 | 0.00 | 0.00 | 67 | 1003.7 |
| 20260505034522 | 75 | 178 | 2.0 | 16.0 | 0.00 | 0.00 | 0.00 | 67 | 1003.7 |
| 20260505033526 | 75 | 230 | 2.0 | 16.0 | 0.00 | 0.00 | 0.00 | 67 | 1003.7 |
| 20260505032454 | 75 | 127 | 2.0 | 11.0 | 0.00 | 0.00 | 0.00 | 66 | 1003.6 |
| 20260505031514 | 75 | 157 | 3.0 | 11.0 | 0.00 | 0.00 | 0.00 | 66 | 1003.7 |
| 20260505030526 | 75 | 188 | 3.0 | 11.0 | 0.00 | 0.00 | 0.00 | 66 | 1003.8 |
| 20260505025500 | 76 | 141 | 3.0 | 10.0 | 0.00 | 0.00 | 0.00 | 66 | 1003.8 |
| 20260505015937 | 76 | 132 | 1.0 | 7.0 | 0.00 | 0.00 | 0.00 | 65 | 1003.7 |
| 20260505014915 | 76 | 159 | 2.0 | 7.0 | 0.00 | 0.00 | 0.00 | 64 | 1003.7 |
| 20260505013923 | 76 | 229 | 2.0 | 9.0 | 0.00 | 0.00 | 0.00 | 64 | 1003.6 |
| 20260505012858 | 77 | 171 | 3.0 | 11.0 | 0.00 | 0.00 | 0.00 | 64 | 1003.7 |
| 20260505011845 | 77 | 194 | 3.0 | 11.0 | 0.00 | 0.00 | 0.00 | 63 | 1003.7 |
| 20260505010903 | 77 | 198 | 3.0 | 12.0 | 0.00 | 0.00 | 0.00 | 63 | 1003.7 |
| 20260505005845 | 77 | 128 | 4.0 | 12.0 | 0.00 | 0.00 | 0.00 | 62 | 1003.7 |
| 20260505004847 | 77 | 167 | 2.0 | 9.0 | 0.00 | 0.00 | 0.00 | 63 | 1003.7 |
| 20260505001508 | 78 | 226 | 3.0 | 13.0 | 0.00 | 0.00 | 0.00 | 60 | 1003.7 |
| 20260505000442 | 79 | 87 | 3.0 | 16.0 | 0.00 | 0.00 | 0.00 | 60 | 1004.0 |
| 20260504235408 | 79 | 129 | 3.0 | 16.0 | 0.00 | 0.00 | 0.00 | 60 | 1003.8 |
| 20260504234359 | 79 | 155 | 3.0 | 12.0 | 0.00 | 0.00 | 0.00 | 59 | 1003.8 |
| 20260504232244 | 80 | 205 | 3.0 | 11.0 | 0.00 | 0.00 | 0.00 | 59 | 1004.1 |
| 20260504231230 | 80 | 150 | 4.0 | 15.0 | 0.00 | 0.00 | 0.00 | 58 | 1004.0 |
| 20260504230233 | 81 | 192 | 3.0 | 15.0 | 0.00 | 0.00 | 0.00 | 57 | 1004.1 |
| 20260504222942 | 82 | 153 | 4.0 | 15.0 | 0.00 | 0.00 | 0.00 | 56 | 1004.3 |
| 20260504221920 | 82 | 240 | 4.0 | 15.0 | 0.00 | 0.00 | 0.00 | 57 | 1004.5 |
| 20260504220941 | 82 | 153 | 3.0 | 15.0 | 0.00 | 0.00 | 0.00 | 58 | 1004.5 |
| 20260504215913 | 82 | 155 | 3.0 | 15.0 | 0.00 | 0.00 | 0.00 | 59 | 1004.5 |
| 20260504214913 | 81 | 61 | 4.0 | 12.0 | 0.00 | 0.00 | 0.00 | 56 | 1004.7 |
| 20260504213839 | 82 | 198 | 4.0 | 12.0 | 0.00 | 0.00 | 0.00 | 56 | 1004.9 |
| 20260504212901 | 81 | 121 | 3.0 | 9.0 | 0.00 | 0.00 | 0.00 | 58 | 1005.2 |
| 20260504211826 | 82 | 232 | 3.0 | 11.0 | 0.00 | 0.00 | 0.00 | 55 | 1005.3 |
| 20260504210827 | 81 | 294 | 4.0 | 11.0 | 0.00 | 0.00 | 0.00 | 56 | 1005.5 |
| 20260504204701 | 81 | 122 | 3.0 | 12.0 | 0.00 | 0.00 | 0.00 | 54 | 1006.1 |
| 20260504203628 | 81 | 184 | 3.0 | 10.0 | 0.00 | 0.00 | 0.00 | 56 | 1006.2 |
| 20260504202601 | 81 | 244 | 4.0 | 12.0 | 0.00 | 0.00 | 0.00 | 58 | 1006.3 |
| 20260504201543 | 80 | 142 | 4.0 | 14.0 | 0.00 | 0.00 | 0.00 | 56 | 1006.5 |
| 20260504200526 | 80 | 169 | 4.0 | 16.0 | 0.00 | 0.00 | 0.00 | 56 | 1006.8 |
| 20260504195506 | 80 | 234 | 4.0 | 16.0 | 0.00 | 0.00 | 0.00 | 55 | 1007.1 |
| 20260504193340 | 80 | 119 | 3.0 | 20.0 | 0.00 | 0.00 | 0.00 | 59 | 1007.2 |
| 20260504192325 | 80 | 130 | 4.0 | 20.0 | 0.00 | 0.00 | 0.00 | 55 | 1007.5 |
| 20260504191300 | 79 | 247 | 4.0 | 11.0 | 0.00 | 0.00 | 0.00 | 57 | 1007.6 |
| 20260504185030 | 78 | 188 | 3.0 | 15.0 | 0.00 | 0.00 | 0.00 | 59 | 1008.1 |
| 20260504183956 | 78 | 142 | 4.0 | 10.0 | 0.00 | 0.00 | 0.00 | 57 | 1008.2 |
| 20260504182950 | 78 | 143 | 4.0 | 11.0 | 0.00 | 0.00 | 0.00 | 59 | 1008.4 |
| 20260504182006 | 78 | 180 | 4.0 | 14.0 | 0.00 | 0.00 | 0.00 | 57 | 1008.5 |
| 20260504181026 | 77 | 169 | 3.0 | 14.0 | 0.00 | 0.00 | 0.00 | 58 | 1008.7 |
| 20260504180035 | 77 | 94 | 4.0 | 12.0 | 0.00 | 0.00 | 0.00 | 56 | 1008.9 |
| 20260504175021 | 77 | 163 | 4.0 | 12.0 | 0.00 | 0.00 | 0.00 | 56 | 1008.8 |
| 20260504173949 | 77 | 189 | 4.0 | 12.0 | 0.00 | 0.00 | 0.00 | 57 | 1009.1 |
| 20260504171907 | 76 | 208 | 4.0 | 14.0 | 0.00 | 0.00 | 0.00 | 59 | 1009.4 |
| 20260504170840 | 76 | 181 | 3.0 | 14.0 | 0.00 | 0.00 | 0.00 | 57 | 1009.6 |
| 20260504141333 | 68 | 194 | 4.0 | 15.0 | 0.00 | 0.00 | 0.00 | 67 | 1011.0 |
| 20260504140310 | 68 | 255 | 4.0 | 14.0 | 0.00 | 0.00 | 0.00 | 68 | 1011.2 |
| 20260504130324 | 64 | 0 | 1.0 | 7.0 | 0.00 | 0.00 | 0.00 | 71 | 1011.5 |
| 20260504081747 | 65 | 345 | 1.0 | 6.0 | 0.00 | 0.01 | 0.00 | 59 | 1011.9 |
| 20260504080737 | 65 | 198 | 1.0 | 5.0 | 0.00 | 0.01 | 0.00 | 59 | 1012.0 |